"Period start","avg(HW err(1)/warn(2) (#))","avg(Visibility (m))","avg(Weather code (#))","avg(Precip intensity (mm/h))","min(HW err(1)/warn(2) (#))","max(HW err(1)/warn(2) (#))","std(HW err(1)/warn(2) (#))","med(HW err(1)/warn(2) (#))","min(Visibility (m))","max(Visibility (m))","std(Visibility (m))","med(Visibility (m))","min(Weather code (#))","max(Weather code (#))","std(Weather code (#))","med(Weather code (#))","min(Precip intensity (mm/h))","max(Precip intensity (mm/h))","std(Precip intensity (mm/h))","med(Precip intensity (mm/h))"
2013-09-17 00:00:00,2,48655,0,0.00,2,2,0,2,43519,50000,2025,49686,0,0,0,0,0.00,0.00,0.00,0.00
2013-09-17 00:10:00,2,46034,0,0.00,2,2,0,2,37493,50000,3652,47183,0,0,0,0,0.00,0.00,0.00,0.00
2013-09-17 00:20:00,2,49549,0,0.00,2,2,0,2,45997,50000,1194,50000,0,0,0,0,0.00,0.00,0.00,0.00
2013-09-17 00:30:00,2,48581,0,0.00,2,2,0,2,44444,50000,2063,50000,0,0,0,0,0.00,0.00,0.00,0.00
2013-09-17 00:40:00,2,49588,0,0.00,2,2,0,2,47514,50000,777,50000,0,0,0,0,0.00,0.00,0.00,0.00
2013-09-17 00:50:00,2,49300,0,0.00,2,2,0,2,47743,50000,902,50000,0,0,0,0,0.00,0.00,0.00,0.00
2013-09-17 01:00:00,2,49048,0,0.00,2,2,0,2,44231,50000,1900,50000,0,0,0,0,0.00,0.00,0.00,0.00
2013-09-17 01:10:00,2,48162,0,0.00,2,2,0,2,44375,50000,2153,49558,0,0,0,0,0.00,0.00,0.00,0.00
2013-09-17 01:20:00,2,48813,0,0.00,2,2,0,2,43143,50000,2241,50000,0,0,0,0,0.00,0.00,0.00,0.00
2013-09-17 01:30:00,2,42080,0,0.00,2,2,0,2,36701,46311,3382,43936,0,0,0,0,0.00,0.00,0.00,0.00
2013-09-17 01:40:00,2,47036,0,0.00,2,2,0,2,43299,50000,1964,46884,0,0,0,0,0.00,0.00,0.00,0.00
2013-09-17 01:50:00,2,47285,0,0.00,2,2,0,2,41341,50000,2844,48278,0,0,0,0,0.00,0.00,0.00,0.00
2013-09-17 02:00:00,2,44140,0,0.00,2,2,0,2,33484,50000,4780,45358,0,0,0,0,0.00,0.00,0.00,0.00
2013-09-17 02:10:00,2,47322,0,0.00,2,2,0,2,28293,50000,6396,49965,0,0,0,0,0.00,0.00,0.00,0.00
2013-09-17 02:20:00,2,42568,0,0.00,2,2,0,2,24971,50000,9263,47803,0,0,0,0,0.00,0.00,0.00,0.00
2013-09-17 02:30:00,2,48378,0,0.00,2,2,0,2,40947,50000,2766,50000,0,0,0,0,0.00,0.00,0.00,0.00
2013-09-17 02:40:00,2,47248,0,0.00,2,2,0,2,39725,50000,3725,48972,0,0,0,0,0.00,0.00,0.00,0.00
2013-09-17 02:50:00,2,49730,0,0.00,2,2,0,2,47650,50000,701,50000,0,0,0,0,0.00,0.00,0.00,0.00
2013-09-17 03:00:00,2,48296,0,0.00,2,2,0,2,44440,50000,2110,49686,0,0,0,0,0.00,0.00,0.00,0.00
2013-09-17 03:10:00,2,48152,0,0.00,2,2,0,2,44599,50000,2168,49330,0,0,0,0,0.00,0.00,0.00,0.00
2013-09-17 03:20:00,2,49786,0,0.00,2,2,0,2,48674,50000,417,50000,0,0,0,0,0.00,0.00,0.00,0.00
2013-09-17 03:30:00,2,49798,0,0.00,2,2,0,2,47978,50000,607,50000,0,0,0,0,0.00,0.00,0.00,0.00
2013-09-17 03:40:00,2,44759,0,0.00,2,2,0,2,29449,50000,8110,50000,0,0,0,0,0.00,0.00,0.00,0.00
2013-09-17 03:50:00,2,26708,24,0.04,2,2,0,2,4406,48042,16858,31764,0,77,26,20,0.00,0.20,0.07,0.00
2013-09-17 04:00:00,2,45235,4,0.00,2,2,0,2,11672,50000,11251,49310,0,41,12,0,0.00,0.00,0.00,0.00
2013-09-17 04:10:00,2,30095,35,0.01,2,2,0,2,5209,50000,15879,32137,0,61,24,41,0.00,0.05,0.02,0.00
2013-09-17 04:20:00,2,39170,0,0.00,2,2,0,2,7794,50000,13972,49409,0,0,0,0,0.00,0.00,0.00,0.00
2013-09-17 04:30:00,2,49709,0,0.00,2,2,0,2,47377,50000,824,50000,0,0,0,0,0.00,0.00,0.00,0.00
2013-09-17 04:40:00,2,49678,0,0.00,2,2,0,2,47160,50000,809,50000,0,0,0,0,0.00,0.00,0.00,0.00
2013-09-17 04:50:00,2,28330,16,0.04,2,2,0,2,4933,50000,17587,30492,0,41,20,0,0.00,0.35,0.11,0.00
2013-09-17 05:00:00,2,47870,0,0.00,2,2,0,2,35908,50000,4530,50000,0,0,0,0,0.00,0.00,0.00,0.00
2013-09-17 05:10:00,2,50000,0,0.00,2,2,0,2,50000,50000,0,50000,0,0,0,0,0.00,0.00,0.00,0.00
2013-09-17 05:20:00,2,49778,0,0.00,2,2,0,2,47777,50000,667,50000,0,0,0,0,0.00,0.00,0.00,0.00
2013-09-17 05:30:00,2,48389,0,0.00,2,2,0,2,45033,50000,1860,49134,0,0,0,0,0.00,0.00,0.00,0.00
2013-09-17 05:40:00,2,49267,0,0.00,2,2,0,2,45910,50000,1420,50000,0,0,0,0,0.00,0.00,0.00,0.00
2013-09-17 05:50:00,2,48686,0,0.00,2,2,0,2,41478,50000,2635,50000,0,0,0,0,0.00,0.00,0.00,0.00
2013-09-17 06:00:00,2,40132,8,0.00,2,2,0,2,26913,50000,8140,38776,0,41,16,0,0.00,0.00,0.00,0.00
2013-09-17 06:10:00,2,17925,62,0.06,2,2,0,2,7192,36544,10589,12789,41,77,15,71,0.00,0.20,0.07,0.05
2013-09-17 06:20:00,2,34386,72,0.10,2,2,0,2,8803,50000,16128,44465,71,77,2,71,0.00,0.60,0.20,0.00
2013-09-17 06:30:00,2,46148,8,0.00,2,2,0,2,24529,50000,8189,50000,0,77,23,0,0.00,0.00,0.00,0.00
2013-09-17 06:40:00,2,42963,0,0.00,2,2,0,2,29575,50000,6925,45802,0,0,0,0,0.00,0.00,0.00,0.00
2013-09-17 06:50:00,2,47199,0,0.00,2,2,0,2,38062,50000,4362,50000,0,0,0,0,0.00,0.00,0.00,0.00
2013-09-17 07:00:00,2,49655,0,0.00,2,2,0,2,47670,50000,705,50000,0,0,0,0,0.00,0.00,0.00,0.00
2013-09-17 07:10:00,2,47173,0,0.00,2,2,0,2,25849,50000,7189,50000,0,0,0,0,0.00,0.00,0.00,0.00
2013-09-17 07:20:00,2,6126,58,1.68,2,2,0,2,1085,24883,6836,3582,0,71,23,71,0.00,4.65,1.45,1.05
2013-09-17 07:30:00,2,25862,71,0.08,2,2,0,2,13293,38142,7505,26520,71,71,0,71,0.00,0.25,0.07,0.08
2013-09-17 07:40:00,2,13038,71,0.45,2,2,0,2,3254,21740,5906,12614,71,71,0,71,0.00,1.30,0.39,0.33
2013-09-17 07:50:00,2,20713,71,0.20,2,2,0,2,5185,38361,12003,15558,71,71,0,71,0.00,0.70,0.25,0.07
2013-09-17 08:00:00,2,5783,71,2.84,2,2,0,2,630,14165,4686,4116,71,71,0,71,0.10,9.70,3.11,1.50
2013-09-17 08:10:00,2,6202,71,0.89,2,2,0,2,1681,10813,2560,6809,71,71,0,71,0.20,2.35,0.60,0.73
2013-09-17 08:20:00,2,28499,71,0.05,2,2,0,2,12581,47421,11205,26973,71,71,0,71,0.00,0.15,0.06,0.03
2013-09-17 08:30:00,2,47112,36,0.01,2,2,0,2,36086,50000,4481,50000,0,77,36,36,0.00,0.05,0.02,0.00
2013-09-17 08:40:00,2,49987,0,0.00,2,2,0,2,49870,50000,39,50000,0,0,0,0,0.00,0.00,0.00,0.00
2013-09-17 08:50:00,2,49644,0,0.00,2,2,0,2,47325,50000,817,50000,0,0,0,0,0.00,0.00,0.00,0.00
2013-09-17 09:00:00,2,44370,36,0.01,2,2,0,2,28144,50000,7735,50000,0,71,36,36,0.00,0.05,0.02,0.00
2013-09-17 09:10:00,2,50000,0,0.00,2,2,0,2,50000,50000,0,50000,0,0,0,0,0.00,0.00,0.00,0.00
2013-09-17 09:20:00,2,50000,0,0.00,2,2,0,2,50000,50000,0,50000,0,0,0,0,0.00,0.00,0.00,0.00
2013-09-17 09:30:00,2,50000,0,0.00,2,2,0,2,50000,50000,0,50000,0,0,0,0,0.00,0.00,0.00,0.00
2013-09-17 09:40:00,2,50000,0,0.00,2,2,0,2,50000,50000,0,50000,0,0,0,0,0.00,0.00,0.00,0.00
2013-09-17 09:50:00,2,50000,0,0.00,2,2,0,2,50000,50000,0,50000,0,0,0,0,0.00,0.00,0.00,0.00
2013-09-17 10:00:00,2,50000,0,0.00,2,2,0,2,50000,50000,0,50000,0,0,0,0,0.00,0.00,0.00,0.00
2013-09-17 10:10:00,2,50000,0,0.00,2,2,0,2,50000,50000,0,50000,0,0,0,0,0.00,0.00,0.00,0.00
2013-09-17 10:20:00,2,50000,0,0.00,2,2,0,2,50000,50000,0,50000,0,0,0,0,0.00,0.00,0.00,0.00
2013-09-17 10:30:00,2,44675,4,0.07,2,2,0,2,4158,50000,13584,50000,0,40,12,0,0.00,0.75,0.23,0.00
2013-09-17 10:40:00,2,11437,48,1.16,2,2,0,2,1907,38918,12386,4984,0,71,27,56,0.00,4.75,1.51,0.45
2013-09-17 10:50:00,2,34600,21,0.19,2,2,0,2,4107,50000,18689,46576,0,71,33,0,0.00,1.20,0.36,0.00
2013-09-17 11:00:00,2,50000,0,0.00,2,2,0,2,50000,50000,0,50000,0,0,0,0,0.00,0.00,0.00,0.00
2013-09-17 11:10:00,2,50000,0,0.00,2,2,0,2,50000,50000,0,50000,0,0,0,0,0.00,0.00,0.00,0.00
2013-09-17 11:20:00,2,50000,0,0.00,2,2,0,2,50000,50000,0,50000,0,0,0,0,0.00,0.00,0.00,0.00
2013-09-17 11:30:00,2,50000,0,0.00,2,2,0,2,50000,50000,0,50000,0,0,0,0,0.00,0.00,0.00,0.00
2013-09-17 11:40:00,2,50000,0,0.00,2,2,0,2,50000,50000,0,50000,0,0,0,0,0.00,0.00,0.00,0.00
2013-09-17 11:50:00,2,50000,0,0.00,2,2,0,2,50000,50000,0,50000,0,0,0,0,0.00,0.00,0.00,0.00
2013-09-17 12:00:00,2,25809,39,0.01,2,2,0,2,5247,50000,16712,22100,0,77,30,40,0.00,0.05,0.02,0.00
2013-09-17 12:10:00,2,11664,72,0.58,2,2,0,2,3349,42135,11856,6676,71,77,2,71,0.00,1.95,0.69,0.33
2013-09-17 12:20:00,2,12832,57,0.57,2,2,0,2,3342,39955,11796,6822,0,71,28,71,0.00,1.90,0.68,0.15
2013-09-17 12:30:00,2,7848,71,0.22,2,2,0,2,6201,9773,957,7914,71,71,0,71,0.15,0.35,0.07,0.20
2013-09-17 12:40:00,2,6472,71,0.29,2,2,0,2,4639,8760,1201,6264,71,71,0,71,0.15,0.50,0.14,0.23
2013-09-17 12:50:00,2,25004,73,0.06,2,2,0,2,9077,38817,10686,29235,71,77,3,71,0.00,0.20,0.08,0.03
2013-09-17 13:00:00,2,9685,72,0.74,2,2,0,2,2527,31892,8792,6004,71,77,2,71,0.05,1.65,0.59,0.57
2013-09-17 13:10:00,2,12767,71,0.30,2,2,0,2,5795,25038,5829,11834,71,71,0,71,0.05,0.80,0.24,0.23
2013-09-17 13:20:00,2,28993,73,0.01,2,2,0,2,10711,42338,9260,28792,71,77,3,71,0.00,0.05,0.02,0.00
2013-09-17 13:30:00,2,10795,75,0.20,2,2,0,2,6568,16537,3461,10796,71,77,3,77,0.05,0.50,0.13,0.15
2013-09-17 13:40:00,2,3426,71,1.22,2,2,0,2,2408,4923,819,3049,71,71,0,71,0.40,1.80,0.44,1.15
2013-09-17 13:50:00,2,6722,71,0.61,2,2,0,2,3335,13572,2897,6745,71,71,0,71,0.05,1.25,0.39,0.53
2013-09-17 14:00:00,2,12204,71,0.15,2,2,0,2,9790,15221,1849,11678,71,71,0,71,0.05,0.25,0.07,0.15
2013-09-17 14:10:00,2,17991,74,0.47,2,2,0,2,4647,33107,11067,15710,71,77,3,74,0.00,1.65,0.64,0.12
2013-09-17 14:20:00,2,8243,71,0.80,2,2,0,2,3712,13986,3697,8434,71,71,0,71,0.05,1.55,0.61,0.72
2013-09-17 14:30:00,2,3591,71,0.85,2,2,0,2,1794,8525,1905,2898,71,71,0,71,0.05,2.25,0.70,0.62
2013-09-17 14:40:00,2,7821,71,0.79,2,2,0,2,1388,19769,5214,7950,71,71,0,71,0.00,4.00,1.27,0.25
2013-09-17 14:50:00,2,5353,71,0.97,2,2,0,2,1738,10010,3145,4174,71,71,0,71,0.10,3.65,1.15,0.40
2013-09-17 15:00:00,2,6946,71,0.34,2,2,0,2,2502,11604,3042,7114,71,71,0,71,0.00,1.00,0.32,0.25
2013-09-17 15:10:00,2,7980,71,0.45,2,2,0,2,1960,13453,3886,9071,71,71,0,71,0.00,1.65,0.57,0.25
2013-09-17 15:20:00,2,8165,71,0.20,2,2,0,2,6327,11473,1303,8101,71,71,0,71,0.05,0.65,0.18,0.15
2013-09-17 15:30:00,2,15390,71,0.17,2,2,0,2,6834,25176,6350,14730,71,71,0,71,0.00,0.60,0.18,0.10
2013-09-17 15:40:00,2,19942,71,0.05,2,2,0,2,16313,26757,2904,19214,71,71,0,71,0.00,0.20,0.07,0.03
2013-09-17 15:50:00,2,13988,71,0.22,2,2,0,2,8906,18916,3118,14157,71,71,0,71,0.05,0.60,0.22,0.10
2013-09-17 16:00:00,2,16909,71,0.04,2,2,0,2,13528,23370,3321,15580,71,71,0,71,0.00,0.20,0.06,0.00
2013-09-17 16:10:00,2,17539,71,0.16,2,2,0,2,7644,25751,4652,17360,71,71,0,71,0.00,0.70,0.20,0.10
2013-09-17 16:20:00,2,21598,71,0.04,2,2,0,2,15921,30028,4574,20785,71,71,0,71,0.00,0.10,0.04,0.03
2013-09-17 16:30:00,2,23151,72,0.03,2,2,0,2,10685,37443,8713,21236,71,77,2,71,0.00,0.15,0.05,0.00
2013-09-17 16:40:00,2,23951,74,0.01,2,2,0,2,14305,44766,9096,22220,71,77,3,74,0.00,0.10,0.03,0.00
2013-09-17 16:50:00,2,20499,71,0.04,2,2,0,2,14211,31557,4800,18778,71,71,0,71,0.00,0.10,0.04,0.05
2013-09-17 17:00:00,2,21735,71,0.04,2,2,0,2,15411,33983,5343,20717,71,71,0,71,0.00,0.20,0.06,0.00
2013-09-17 17:10:00,2,36087,72,0.01,2,2,0,2,24757,46180,6316,34944,71,77,2,71,0.00,0.05,0.02,0.00
2013-09-17 17:20:00,2,24178,75,0.15,2,2,0,2,6957,42947,14485,22377,71,77,3,77,0.00,0.50,0.19,0.05
2013-09-17 17:30:00,2,6755,71,0.52,2,2,0,2,3466,9974,2234,6078,71,71,0,71,0.15,1.35,0.34,0.42
2013-09-17 17:40:00,2,3877,71,0.74,2,2,0,2,3099,5128,660,3726,71,71,0,71,0.45,1.25,0.23,0.68
2013-09-17 17:50:00,2,4563,71,0.36,2,2,0,2,2601,6207,1175,5042,71,71,0,71,0.15,0.65,0.17,0.33
2013-09-17 18:00:00,2,4601,71,0.43,2,2,0,2,2299,6251,1093,4676,71,71,0,71,0.15,1.65,0.43,0.30
2013-09-17 18:10:00,2,2405,71,1.33,2,2,0,2,1709,3152,449,2310,71,71,0,71,0.70,2.60,0.58,1.18
2013-09-17 18:20:00,2,1314,71,4.08,2,2,0,2,877,1617,249,1380,71,71,0,71,2.10,7.60,1.78,3.42
2013-09-17 18:30:00,2,2372,71,1.99,2,2,0,2,1078,5220,1186,1879,71,71,0,71,0.55,5.00,1.24,1.75
2013-09-17 18:40:00,2,3660,72,2.57,2,2,0,2,2735,5301,693,3512,71,74,1,71,0.60,6.45,1.77,1.73
2013-09-17 18:50:00,2,3639,71,2.50,2,2,0,2,1656,7518,2225,2278,71,71,0,71,0.95,4.70,1.23,2.12
2013-09-17 19:00:00,2,4678,71,1.25,2,2,0,2,1376,6938,1624,5194,71,71,0,71,0.40,4.25,1.10,0.82
2013-09-17 19:10:00,2,5843,72,1.34,2,2,0,2,2737,9583,2009,6075,71,74,1,71,0.75,2.15,0.47,1.20
2013-09-17 19:20:00,2,6386,71,0.75,2,2,0,2,5242,8028,911,6054,67,74,2,71,0.25,1.40,0.42,0.73
2013-09-17 19:30:00,2,8622,71,0.28,2,2,0,2,6849,10719,1123,8874,71,71,0,71,0.10,0.40,0.10,0.28
2013-09-17 19:40:00,2,6979,71,0.59,2,2,0,2,5554,8915,1199,6463,71,71,0,71,0.30,1.20,0.25,0.57
2013-09-17 19:50:00,2,5272,71,1.27,2,2,0,2,1992,6701,1546,6083,71,71,0,71,0.60,3.45,0.80,1.00
2013-09-17 20:00:00,2,5385,71,1.06,2,2,0,2,2214,7121,1426,5850,71,71,0,71,0.35,3.75,0.93,0.82
2013-09-17 20:10:00,2,7731,71,0.28,2,2,0,2,6111,11963,1696,7219,71,71,0,71,0.05,0.75,0.20,0.25
2013-09-17 20:20:00,2,8066,75,0.39,2,2,0,2,5540,12523,2352,7298,71,77,3,77,0.25,0.65,0.12,0.35
2013-09-17 20:30:00,2,7335,71,0.36,2,2,0,2,6382,9150,721,7226,71,71,0,71,0.15,0.50,0.09,0.40
2013-09-17 20:40:00,2,7322,71,0.44,2,2,0,2,5054,10634,1534,6940,71,71,0,71,0.15,0.75,0.19,0.45
2013-09-17 20:50:00,2,7968,71,0.25,2,2,0,2,6401,11062,1373,7668,71,71,0,71,0.10,0.65,0.14,0.23
2013-09-17 21:00:00,2,5320,71,0.56,2,2,0,2,4493,7495,891,5017,71,71,0,71,0.25,1.10,0.24,0.55
2013-09-17 21:10:00,2,7067,71,0.28,2,2,0,2,5236,8624,974,6965,71,71,0,71,0.10,0.50,0.12,0.30
2013-09-17 21:20:00,2,8102,74,0.48,2,2,0,2,6343,10407,1161,7756,71,77,3,74,0.10,1.05,0.31,0.45
2013-09-17 21:30:00,2,7953,75,0.66,2,2,0,2,4569,10258,2156,8778,71,77,3,77,0.30,1.00,0.22,0.62
2013-09-17 21:40:00,2,3582,71,1.61,2,2,0,2,1507,5055,1109,3940,71,71,0,71,0.40,7.20,2.08,0.62
2013-09-17 21:50:00,2,5153,71,0.46,2,2,0,2,4635,6092,426,5020,71,71,0,71,0.35,0.75,0.13,0.40
2013-09-17 22:00:00,2,7752,73,0.47,2,2,0,2,6192,11343,1441,7290,71,77,3,71,0.30,0.75,0.15,0.47
2013-09-17 22:10:00,2,5963,71,0.45,2,2,0,2,4401,7046,885,6258,71,71,0,71,0.25,0.70,0.14,0.45
2013-09-17 22:20:00,2,4480,71,0.64,2,2,0,2,2485,6404,1100,4322,71,71,0,71,0.30,1.20,0.27,0.62
2013-09-17 22:30:00,2,6844,71,0.33,2,2,0,2,3698,14837,3750,4576,71,71,0,71,0.05,0.55,0.16,0.38
2013-09-17 22:40:00,2,10927,71,0.16,2,2,0,2,7589,18690,3934,8722,71,71,0,71,0.05,0.60,0.15,0.10
2013-09-17 22:50:00,2,16278,76,0.02,2,2,0,2,7028,25465,5866,15878,71,77,2,77,0.00,0.10,0.03,0.00
2013-09-17 23:00:00,2,40070,15,0.00,2,2,0,2,25168,50000,8982,40801,0,77,31,0,0.00,0.00,0.00,0.00
2013-09-17 23:10:00,2,48000,0,0.00,2,2,0,2,42789,50000,2474,49548,0,0,0,0,0.00,0.00,0.00,0.00
2013-09-17 23:20:00,2,14109,53,0.34,2,2,0,2,2406,40790,11464,10062,0,77,24,56,0.00,1.15,0.37,0.20
2013-09-17 23:30:00,2,5080,71,1.97,2,2,0,2,1913,9587,2836,3418,71,71,0,71,0.60,3.75,1.18,1.92
2013-09-17 23:40:00,2,2988,71,2.36,2,2,0,2,1397,4643,1070,2632,71,71,0,71,0.55,3.90,1.01,2.08
2013-09-17 23:50:00,2,3700,71,1.83,2,2,0,2,2565,5172,891,3535,71,71,0,71,1.00,2.85,0.58,1.70
